User: anonymous   Login
Location: Unspecified
(0.0000°N, 0.0000°E)
Time: 10:59:39
(UTC+00:00)
Language:

KUIPER-00140 - Orbit

View from above orbital plane
View from above orbital plane
View from above satellite
View from above satellite

Ground track
Ground track

The orbit is defined by the following mean orbital elements,

1 65782U          26145.03655361 +.00000000 +00000-0 +19406-3 0 00001
2 65782  51.9024  55.5058 0000897  93.7021 266.4044 14.79936748    09
Epoch (UTC): 25 May 2026 00:52:38
Eccentricity: 0.0000897
inclination: 51.9024°
perigee height: 629 km
apogee height: 630 km
right ascension of ascending node: 55.5058°
argument of perigee: 93.7021°
revolutions per day: 14.79936748
mean anomaly at epoch: 266.4044°

The dashed part of the orbit path shows where the satellite is in the earth's shadow,  

DLR